Vorticity
10 7 3 5 15 14 -0 3 4 10 10 8 2 4 5 12 18 19 18 15 12 10 11 12 14 12 12 12 10 10 9 8 7 8 10 12 9 6 6 10 15 10 10 6
7 7 10 10 11 7 7 11 9 8 8 10 11 10 10 8 10 10 12 12 13 15 13 12 8 6 9 10 9 8 8 10 9 12 14 10 5 13 17 9 9 12 15 13
16 10 2 4 9 9 7 6 4 5 9 6 8 10 14 9 9 10 11 11 10 10 11 11 12 12 13 10 9 10 12 14 13 16 21 20 15 12 12 6 14 12 12 10
8 11 15 12 13 14 13 11 12 5 5 7 6 6 16 7 8 8 11 11 9 10 10 11 10 10 10 10 12 16 20 21 15 11 9 9 10 13 18 16 12 14 7 9
8 15 22 9 15 7 13 18 16 15 12 12 16 21 15 21 16 12 7 8 9 13 11 9 9 10 13 18 18 18 11 9 11 13 13 13 16 12 8 10 8 8 9 8
7 8 7 12 13 14 11 14 15 15 13 19 13 10 7 11 4 7 9 9 13 11 8 10 12 11 12 9 8 7 8 10 11 12 11 11 11 10 9 9 10 10 10 12
10 7 14 9 12 11 11 12 12 11 14 13 10 8 5 7 10 9 8 12 11 6 8 11 10 6 4 6 13 8 10 11 9 10 13 9 7 9 9 9 10 11 11 11
15 10 7 7 15 11 11 10 8 8 7 9 9 11 11 11 11 11 13 14 9 3 7 10 8 5 5 9 14 9 10 10 9 9 8 7 7 9 8 6 5 5 8 9
13 16 12 14 15 10 10 9 11 9 9 9 9 10 10 11 11 13 14 16 10 4 9 6 8 6 8 9 10 9 10 10 8 9 8 7 6 3 4 10 11 4 5 4
0 7 13 5 10 12 12 9 10 9 8 8 8 7 8 9 12 13 14 15 4 5 6 17 4 8 7 7 7 10 10 12 11 9 7 6 4 5 6 9 7 5 4 4
17 9 2 11 12 5 5 7 9 10 9 8 7 6 5 5 8 11 17 12 8 13 18 21 4 8 7 7 6 8 9 8 9 9 8 6 5 6 9 11 10 10 8 8
6 3 13 8 4 11 12 8 6 5 6 7 6 5 5 5 6 10 10 9 15 13 14 12 6 10 9 9 7 7 9 8 8 8 6 6 4 10 -0 2 16 14 9 9
10 3 4 8 10 11 11 13 14 10 12 10 8 5 4 6 9 11 13 -1 -3 21 12 6 5 10 11 10 10 8 8 8 8 7 9 9 9 6 5 3 15 20 12 10
6 7 10 4 6 9 11 9 10 12 16 14 9 12 13 10 8 12 14 5 3 8 14 5 7 8 6 7 8 7 7 6 7 6 7 11 12 9 8 8 7 9 11 11
14 9 7 11 5 8 5 4 2 3 9 10 13 14 12 9 6 5 12 13 10 7 3 9 5 7 2 0 1 4 5 5 7 5 7 9 9 12 11 7 4 6 7 9
12 14 20 22 10 2 9 8 4 6 6 9 10 15 15 12 15 7 7 9 12 7 14 7 11 6 2 6 5 4 5 6 5 6 8 8 11 11 12 9 8 9 7 6
10 14 9 19 32 5 9 12 5 5 6 4 5 5 7 15 12 14 13 7 9 11 11 14 12 10 14 8 4 6 5 5 5 6 7 9 9 10 9 8 9 9 8 4
15 28 10 19 35 22 13 17 7 9 2 4 9 13 12 11 14 14 13 14 11 11 10 10 11 14 11 11 10 9 8 10 10 8 9 10 8 7 8 7 6 8 6 5
26 29 5 23 19 20 9 10 7 5 14 14 14 14 13 14 15 16 16 14 12 12 13 12 10 9 10 8 7 6 7 8 8 8 8 12 8 8 7 6 7 5 3 5
16 5 16 22 12 13 10 13 17 18 17 8 7 11 13 17 15 13 15 17 17 15 16 16 17 13 9 9 10 10 11 12 9 10 11 15 10 9 10 9 4 6 6 9
13 12 14 13 17 20 16 19 21 22 21 20 20 19 24 22 21 19 15 11 12 15 16 13 18 19 18 14 12 13 15 14 14 13 11 12 5 3 15 5 -0 0 6 8
18 19 1 25 1 8 18 10 17 -10 9 13 15 8 18 25 17 17 16 13 13 15 16 15 14 17 17 17 14 14 13 15 15 14 6 10 8 13 15 12 16 19 21 21
28 2 1 7 5 6 8 7 11 15 15 17 6 9 10 10 12 10 15 19 15 10 11 14 16 15 15 14 14 14 13 10 12 14 17 18 16 17 16 14 16 12 11 5
19 4 13 4 6 -1 4 9 7 9 11 9 8 10 13 9 10 14 18 20 22 16 16 15 14 13 12 13 13 11 14 16 14 14 13 13 16 17 13 9 6 3 5 5
9 12 5 1 -5 0 9 2 3 5 5 6 7 8 10 10 7 2 11 13 7 10 14 24 19 12 11 8 5 5 5 6 7 9 13 13 7 3 2 3 3 6 6 5
2 6 8 8 8 2 2 3 3 5 5 6 8 10 9 7 7 7 7 9 10 19 15 13 7 4 7 14 20 22 22 21 17 9 4 4 2 2 3 5 7 10 8 6
5 5 4 3 4 5 5 4 4 3 3 6 5 2 2 3 10 12 11 8 8 15 9 4 8 9 8 9 11 10 10 10 6 3 5 3 4 4 4 4 5 10 11 7
Height
5646 5648 5649 5651 5653 5654 5656 5659 5656 5662 5660 5664 5667 5669 5671 5672 5674 5676 5679 5682 5685 5687 5690 5692 5693 5695 5696 5697 5698 5699 5699 5700 5700 5701 5701 5700 5700 5699 5699 5697 5696 5694 5692 5691
5642 5644 5645 5646 5648 5650 5652 5653 5655 5655 5657 5661 5663 5664 5667 5667 5669 5671 5673 5676 5678 5681 5683 5684 5686 5687 5688 5689 5690 5690 5690 5691 5691 5691 5691 5691 5691 5690 5688 5688 5686 5685 5683 5682
5639 5639 5639 5641 5643 5644 5647 5648 5650 5649 5655 5651 5656 5660 5662 5663 5664 5666 5668 5671 5672 5674 5676 5678 5679 5680 5680 5681 5681 5681 5682 5682 5683 5683 5682 5682 5681 5680 5680 5679 5679 5676 5675 5673
5634 5634 5634 5638 5639 5639 5641 5642 5643 5646 5648 5648 5652 5655 5656 5657 5658 5661 5663 5666 5667 5668 5670 5671 5673 5673 5674 5674 5674 5674 5674 5675 5675 5675 5675 5674 5674 5673 5672 5672 5671 5670 5668 5665
5628 5629 5632 5633 5633 5634 5635 5638 5639 5641 5641 5644 5647 5648 5650 5651 5653 5656 5658 5660 5661 5663 5664 5666 5666 5667 5667 5667 5667 5667 5667 5668 5669 5668 5667 5668 5667 5667 5667 5666 5664 5663 5661 5658
5624 5625 5627 5628 5629 5630 5631 5633 5634 5635 5637 5639 5642 5645 5646 5647 5649 5651 5653 5654 5655 5657 5659 5660 5661 5661 5661 5661 5662 5661 5662 5663 5662 5662 5662 5662 5661 5661 5660 5660 5658 5655 5653 5651
5619 5620 5623 5623 5623 5625 5628 5631 5629 5630 5632 5635 5637 5639 5640 5642 5644 5645 5646 5648 5649 5651 5652 5653 5655 5655 5655 5656 5657 5657 5657 5657 5656 5657 5657 5656 5656 5656 5655 5653 5651 5649 5647 5644
5614 5615 5618 5618 5619 5621 5622 5624 5625 5626 5628 5630 5632 5634 5635 5637 5638 5639 5640 5642 5643 5645 5646 5648 5649 5650 5651 5651 5652 5652 5652 5652 5653 5652 5651 5650 5650 5651 5649 5646 5644 5643 5641 5639
5612 5612 5612 5613 5614 5615 5617 5619 5621 5622 5624 5626 5627 5629 5630 5631 5633 5633 5634 5636 5638 5639 5640 5641 5643 5644 5645 5646 5646 5646 5647 5648 5647 5646 5645 5645 5645 5644 5641 5639 5638 5636 5635 5632
5606 5607 5607 5609 5609 5610 5612 5614 5616 5617 5619 5621 5623 5624 5625 5626 5627 5628 5629 5630 5632 5633 5634 5634 5636 5638 5639 5640 5640 5641 5641 5641 5641 5640 5640 5639 5637 5636 5634 5633 5631 5629 5626 5623
5600 5600 5601 5603 5604 5606 5607 5608 5610 5612 5613 5615 5617 5618 5619 5620 5621 5622 5623 5625 5626 5626 5627 5629 5631 5632 5633 5634 5635 5635 5635 5635 5634 5634 5633 5632 5630 5629 5627 5625 5623 5620 5618 5615
5593 5592 5595 5596 5597 5599 5600 5602 5604 5605 5607 5609 5610 5612 5613 5614 5615 5616 5618 5619 5619 5621 5622 5623 5625 5626 5627 5627 5628 5628 5627 5628 5627 5626 5625 5624 5623 5622 5620 5617 5614 5611 5609 5606
5581 5583 5587 5589 5590 5592 5593 5594 5596 5598 5599 5601 5603 5604 5606 5607 5608 5609 5610 5613 5613 5614 5616 5618 5619 5620 5620 5620 5620 5621 5621 5620 5619 5618 5617 5616 5615 5614 5612 5609 5606 5602 5600 5597
5570 5573 5577 5580 5583 5584 5586 5588 5589 5591 5592 5593 5595 5596 5598 5599 5601 5602 5603 5605 5606 5608 5609 5610 5611 5612 5613 5614 5614 5613 5613 5613 5612 5611 5610 5608 5606 5604 5603 5600 5598 5595 5592 5589
5559 5561 5565 5569 5573 5576 5578 5580 5582 5584 5585 5586 5587 5588 5590 5591 5593 5594 5595 5596 5598 5599 5601 5602 5604 5604 5606 5607 5606 5606 5605 5605 5604 5603 5601 5599 5598 5595 5593 5591 5589 5587 5584 5580
5549 5551 5555 5558 5561 5566 5569 5573 5575 5576 5577 5578 5579 5580 5581 5582 5584 5585 5586 5587 5589 5590 5591 5593 5594 5595 5596 5598 5597 5597 5597 5596 5596 5594 5592 5591 5589 5586 5584 5582 5580 5577 5574 5571
5543 5546 5548 5550 5553 5556 5561 5564 5566 5568 5570 5571 5571 5572 5572 5573 5574 5575 5576 5578 5579 5580 5581 5583 5584 5585 5586 5587 5588 5588 5587 5587 5586 5585 5583 5582 5580 5578 5576 5574 5571 5569 5566 5563
5538 5540 5543 5544 5546 5549 5553 5557 5559 5561 5562 5563 5563 5563 5564 5564 5564 5565 5566 5568 5569 5570 5571 5572 5574 5575 5576 5577 5577 5578 5577 5577 5577 5575 5574 5572 5571 5569 5567 5565 5563 5560 5557 5553
5534 5537 5538 5539 5542 5544 5547 5550 5552 5553 5554 5554 5554 5555 5555 5555 5555 5555 5556 5557 5558 5560 5560 5562 5563 5564 5564 5565 5566 5566 5567 5567 5566 5565 5564 5563 5562 5560 5558 5556 5554 5551 5547 5544
5533 5535 5535 5536 5538 5540 5542 5544 5545 5545 5546 5546 5546 5546 5546 5546 5546 5546 5547 5547 5548 5550 5550 5551 5552 5553 5554 5554 5555 5556 5556 5556 5555 5555 5554 5553 5552 5550 5548 5546 5543 5540 5537 5534
5531 5532 5532 5533 5534 5535 5535 5536 5537 5538 5539 5539 5539 5539 5538 5537 5538 5538 5538 5538 5539 5540 5540 5541 5542 5542 5543 5544 5545 5545 5545 5545 5545 5544 5543 5543 5541 5540 5538 5535 5532 5530 5527 5524
5528 5529 5530 5530 5531 5532 5533 5533 5534 5534 5534 5533 5533 5533 5532 5531 5531 5530 5530 5530 5530 5531 5531 5532 5533 5533 5533 5534 5535 5535 5535 5535 5534 5534 5533 5532 5531 5529 5528 5526 5523 5520 5517 5513
5525 5526 5526 5527 5528 5529 5529 5530 5530 5529 5529 5529 5528 5527 5527 5526 5525 5524 5523 5522 5522 5523 5523 5523 5524 5524 5525 5525 5525 5525 5525 5525 5525 5524 5523 5522 5520 5519 5518 5516 5513 5511 5507 5503
5522 5522 5522 5523 5523 5524 5524 5524 5524 5524 5524 5524 5523 5522 5522 5520 5520 5518 5517 5516 5516 5516 5516 5516 5516 5516 5516 5517 5517 5517 5516 5516 5516 5515 5514 5513 5512 5511 5509 5507 5505 5502 5498 5493
5516 5517 5518 5519 5519 5519 5519 5519 5519 5519 5519 5518 5518 5517 5516 5516 5515 5514 5513 5512 5511 5510 5509 5509 5509 5509 5509 5509 5509 5509 5508 5508 5507 5507 5506 5505 5504 5503 5501 5498 5496 5492 5487 5483
5509 5510 5511 5511 5512 5513 5513 5513 5513 5512 5512 5512 5511 5511 5510 5510 5509 5508 5507 5506 5505 5504 5504 5503 5503 5503 5503 5503 5502 5501 5500 5500 5499 5499 5498 5497 5496 5495 5492 5490 5486 5482 5477 5471
5499 5500 5501 5502 5503 5503 5503 5504 5504 5504 5504 5504 5504 5504 5503 5503 5502 5501 5501 5500 5499 5498 5497 5497 5497 5496 5495 5495 5494 5494 5493 5493 5492 5492 5491 5490 5489 5486 5483 5480 5475 5471 5465 5460